Simultaneous Nadir Overpasses (SNOs) Predictions

Prediction of SNOs between FY3D and AQUA Satellite Orbit:

Table of predicted SNOs for the next 14.0 days since TLE Epoch: 2/4/2023
Index Date (FY3D) Time (FY3D) Lat,Lon (FY3D) SZA (FY3D ) Date (AQUA) Time (AQUA) Lat,Lon (AQUA) SZA (AQUA ) Distance(km) Time Diff (sec)
1 02/05/2023 00:40:09 78.19, 152.03 94.97 02/05/2023 00:41:15 78.19, 152.03 94.95 0.20 66
2 02/05/2023 01:30:43 -77.72, -38.17 85.66 02/05/2023 01:30:29 -77.72, -38.15 85.66 0.63 14
3 02/07/2023 15:16:35 78.04, -66.21 93.97 02/07/2023 15:17:24 78.05, -66.31 93.97 2.64 49
4 02/07/2023 16:07:08 -77.52, 103.72 86.72 02/07/2023 16:06:37 -77.53, 103.65 86.70 1.93 31
5 02/10/2023 05:53:07 78.13, 74.22 93.25 02/10/2023 05:53:37 78.12, 74.33 93.23 2.71 30
6 02/10/2023 06:43:34 -77.36,-114.64 87.75 02/10/2023 06:42:45 -77.37,-114.73 87.72 2.59 49
7 02/12/2023 20:29:28 77.82,-143.26 92.00 02/12/2023 20:29:40 77.83,-143.36 92.01 2.64 12
8 02/12/2023 21:20:00 -77.25, 26.77 88.74 02/12/2023 21:18:52 -77.26, 26.71 88.72 1.39 68
9 02/15/2023 10:15:22 -78.24,-171.87 88.34 02/15/2023 10:16:33 -78.24,-171.93 88.36 1.40 71
10 02/15/2023 11:05:57 77.80, -2.25 91.09 02/15/2023 11:05:49 77.80, -2.25 91.09 0.10 8
11 02/18/2023 00:51:48 -78.11, -30.24 89.42 02/18/2023 00:52:39 -78.12, -30.35 89.42 2.71 51



Historial Predications of SNOs between FY3D and AQUA
